Location: Chester Fire Department
(37.9143°N, 89.8201°W)
Time: 22:06:43
(UTC+00:00)

Daily predictions for brighter satellites

Satellite Brightness Start Highest point End
(mag) Time Altitude Azimuth Time Altitude Azimuth Time Altitude Azimuth
Milstar 3 Cent rocket 4.3 12:03:14 10° SW 12:07:12 19° S 12:12:42 10° SSE
Cosmos 1933 4.5 12:06:17 11° NW 12:09:17 23° W 12:12:23 10° SW
ERS-2 1.9 12:07:01 10° N 12:09:46 39° WNW 12:12:31 10° SW
SAR-Lupe-2 3.5 12:07:25 10° N 12:10:58 65° WNW 12:14:29 10° SSW
CZ-4C R/B 4.4 12:04:54 10° NNW 12:11:26 34° NE 12:19:00 10° ESE
PSLV R/B 4.1 12:09:04 10° N 12:12:58 35° WNW 12:16:51 10° SW
COSMO-SKYMED 1 3.8 12:11:07 10° SW 12:14:27 22° W 12:17:48 10° NW
Cosmos 1862 4.3 12:11:32 10° SW 12:14:42 24° WNW 12:17:53 10° NNW
Cosmos 2151 3.2 12:10:42 10° SSW 12:14:43 46° W 12:18:47 10° N
SeaSat 1 4.2 12:11:59 10° ESE 12:16:10 29° NE 12:20:20 10° N
USA 215 3.5 12:14:43 10° NE 12:20:58 50° NW 12:27:11 10° WSW
Meteor 1-31 Rocket 2.9 12:18:34 10° NNE 12:22:22 80° ESE 12:26:09 10° S
GENESIS II 4.2 12:20:40 10° SW 12:24:25 54° WNW 12:28:14 10° NNE
BlueWalker 3 3.7 12:26:04 10° W 12:28:38 17° SW 12:31:09 10° SSW
SMAP 3.1 12:30:53 10° N 12:35:31 67° WNW 12:40:07 10° SSW
BREEZE-M R/B 4.3 12:33:17 10° WNW 12:38:56 30° WSW 12:42:11 10° S
NOSS 3-4 (A) 4.2 22:54:47 10° NW 23:02:03 85° WSW 23:10:18 10° SSE
NOSS 3-4 (C) 4.2 22:54:56 10° NW 23:02:07 84° WSW 23:10:17 10° SSE
Cosmos 44 3.4 22:57:50 10° NNW 23:03:11 74° ENE 23:08:14 10° SE
CORIOLIS 4.4 22:58:53 10° SE 23:03:57 46° ENE 23:09:03 10° N
USA 234 3.4 23:01:14 10° NE 23:07:45 66° SE 23:14:14 10° SW
SJ-7 4.3 23:04:56 10° SSE 23:08:52 75° ENE 23:12:53 10° N
Cosmos 2227 Rocket 4.5 23:06:03 10° W 23:10:00 19° NW 23:13:56 10° N
Cosmos 2227 4.4 23:04:39 10° S 23:10:18 61° ESE 23:15:59 10° NNE
Cosmos 1140 Rocket 4.1 23:05:49 10° N 23:10:30 34° ENE 23:15:08 10° SE
Cosmos 1076 Rocket 3.6 23:06:49 10° N 23:11:11 86° W 23:15:31 10° S
Cosmos 1602 3.8 23:10:24 10° N 23:14:03 51° E 23:17:41 10° SSE
Nadezhda 4 Rocket 4.0 23:09:44 10° S 23:15:48 64° E 23:21:51 10° NNE
Cosmos 1782 3.8 23:15:57 10° SSE 23:19:11 26° E 23:22:27 10° NNE
Cosmos 1500 3.7 23:20:09 10° NNW 23:23:37 58° W 23:27:05 10° S
DMSP B5D2-2 4.4 23:19:46 10° N 23:24:58 69° WNW 23:30:08 10° SSW
Helios 1B rocket 3.6 23:22:41 10° S 23:26:28 46° W 23:30:16 10° NNW
Cosmos 1812 Rocket 3.6 23:22:56 10° S 23:27:10 59° E 23:31:27 10° NNE
SL-8 R/B 4.1 23:23:33 10° NW 23:28:09 45° NNE 23:32:45 10° E
Cosmos 1603 4.2 23:23:05 10° N 23:28:18 36° ENE 23:33:27 10° SE
CZ-4B R/B 3.5 23:25:52 10° SSE 23:29:25 68° ENE 23:33:00 10° N
Helios 1A 3.2 23:26:19 10° NNE 23:30:21 49° E 23:34:21 10° S
ISS -3.9 23:28:40 10° NW 23:32:01 74° NE 23:35:21 10° SE
CZ-2C R/B 3.0 23:33:17 10° SW 23:34:31 13° SSW 23:35:45 10° S
H-2A R/B 2.8 23:33:06 10° SW 23:35:10 23° S 23:39:12 10° ESE
CZ-4B R/B 3.8 23:30:47 10° SE 23:35:35 43° ENE 23:40:16 10° N
SMAP 3.2 23:31:56 10° S 23:36:35 82° WSW 23:41:16 10° NNW
SL-16 R/B 4.2 23:36:05 10° NW 23:41:05 33° WSW 23:46:04 10° SSW
NOAA 6 4.3 23:40:48 10° SE 23:45:36 42° ENE 23:50:25 10° N
Cosmos 1943 3.1 23:46:21 10° NNW 23:52:01 84° ENE 23:57:40 10° SSE
Cosmos 1627 Rocket 4.5 23:46:54 10° S 23:53:04 65° E 23:59:21 10° NNE
Cosmos-2242 4.0 23:50:50 10° SSW 23:55:02 48° W 23:59:14 10° N
